Weather History for KMKG - February, 2013

Change the Weather History Date:

Wednesday, February 13, 2013

  Actual Average Record
Temperature  
Mean Temperature 29 °F 27 °F  
Max Temperature 36 °F 33 °F 51 °F (1984)
Min Temperature 22 °F 21 °F -22 °F (1899)
Degree Days  
Heating Degree Days 36 38  
Month to date heating degree days 547 510  
Since 1 July heating degree days 3860 4182  
Cooling Degree Days 0 0  
Month to date cooling degree days 0 0  
Year to date cooling degree days 0 0  
Moisture  
Dew Point 26 °F    
Average Humidity 81    
Maximum Humidity 92    
Minimum Humidity 69    
Precipitation  
Precipitation 0.00 in 0.07 in 1.63 in (1938)
Month to date precipitation 1.78 0.78  
Year to date precipitation 7.26 2.81  
Snow  
Snow 0.00 in 0.70 in 4.00 in (1936)
Month to date snowfall 26.3 9.9  
Since 1 July snowfall 65.9 73.0  
Snow Depth 6.00 in    
Sea Level Pressure  
Sea Level Pressure 29.79 in    
Wind  
Wind Speed 8 mph (South)    
Max Wind Speed 16 mph    
Max Gust Speed 22 mph    
Visibility 6 miles    
Events      
T = Trace of Precipitation, MM = Missing Value Source: NWS Daily Summary

Daily Weather History Graph

Daily Weather History Graph

Search for Another Location

Airport or City:

Trip Planner

Search our weather history database for the weather conditions in past years. The results will help you decide how hot, cold, wet, or windy it might be!

Date:

Astronomy

Feb. 13, 2013 Rise Set
Actual Time 7:45 AM EST 6:13 PM EST
Civil Twilight 7:15 AM EST 6:43 PM EST
Nautical Twilight 6:42 AM EST 7:16 PM EST
Astronomical Twilight 6:09 AM EST 7:49 PM EST
Moon 9:06 AM EST (2/13) 10:24 PM EST (2/13)
Length of Visible Light 11h 27m
Length of Day
10h 28m
Waxing Crescent, 13% of the Moon is Illuminated
Feb 13
Waxing Crescent
Feb 17
First Quarter
Feb 25
Full
Mar 4
Last Quarter
Mar 11
New

Hourly Weather History & Observations

Time (EST) Temp. Windchill Dew Point Humidity Pressure Visibility Wind Dir Wind Speed Gust Speed Precip Events Conditions
12:18 AM 26.6 °F 20.0 °F 21.2 °F 80% 29.90 in 10.0 mi SW 5.8 mph - N/A   Scattered Clouds
12:55 AM 27.0 °F 23.0 °F 21.0 °F 78% 29.92 in 10.0 mi South 3.5 mph - N/A   Mostly Cloudy
1:55 AM 30.9 °F 22.2 °F 24.1 °F 76% 29.91 in 10.0 mi WSW 10.4 mph - N/A   Overcast
2:55 AM 30.0 °F 22.4 °F 24.1 °F 79% 29.90 in 10.0 mi SW 8.1 mph - N/A   Mostly Cloudy
3:04 AM 28.4 °F 21.2 °F 23.0 °F 80% 29.87 in 10.0 mi SW 6.9 mph - N/A   Scattered Clouds
3:55 AM 28.9 °F 22.8 °F 24.1 °F 82% 29.88 in 9.0 mi SW 5.8 mph - N/A   Clear
4:55 AM 21.9 °F 15.7 °F 19.0 °F 89% 29.86 in 6.0 mi SE 4.6 mph - N/A   Clear
5:55 AM 21.9 °F 15.7 °F 19.9 °F 92% 29.84 in 5.0 mi SE 4.6 mph - N/A   Mostly Cloudy
6:55 AM 28.9 °F 21.9 °F 25.0 °F 85% 29.82 in 7.0 mi SSE 6.9 mph - N/A   Overcast
7:55 AM 30.0 °F 24.1 °F 26.1 °F 85% 29.81 in 4.0 mi South 5.8 mph - N/A   Overcast
8:12 AM 28.4 °F 20.4 °F 24.8 °F 86% 29.78 in 4.0 mi SSE 8.1 mph - N/A   Overcast
8:50 AM 30.2 °F 22.6 °F 26.6 °F 86% 29.78 in 5.0 mi South 8.1 mph - N/A   Overcast
8:55 AM 30.9 °F 22.8 °F 27.0 °F 85% 29.80 in 5.0 mi South 9.2 mph - N/A   Overcast
9:45 AM 30.2 °F 21.9 °F 26.6 °F 86% 29.77 in 6.0 mi South 9.2 mph - N/A   Overcast
9:55 AM 30.9 °F 22.8 °F 27.0 °F 85% 29.80 in 6.0 mi South 9.2 mph - N/A   Overcast
10:29 AM 30.2 °F 19.3 °F 26.6 °F 86% 29.77 in 6.0 mi South 15.0 mph 20.7 mph N/A   Haze
10:48 AM 30.2 °F 19.3 °F 26.6 °F 86% 29.77 in 7.0 mi South 15.0 mph - N/A   Overcast
10:55 AM 30.9 °F 19.8 °F 26.1 °F 82% 29.79 in 6.0 mi South 16.1 mph - N/A   Haze
11:13 AM 30.2 °F 20.2 °F 24.8 °F 80% 29.77 in 6.0 mi South 12.7 mph - N/A   Haze
11:55 AM 32.0 °F 22.1 °F 26.1 °F 79% 29.78 in 7.0 mi South 13.8 mph - N/A   Overcast
12:47 PM 33.8 °F 24.3 °F 28.4 °F 81% 29.75 in 7.0 mi South 13.8 mph - N/A   Overcast
12:55 PM 34.0 °F 24.2 °F 28.0 °F 79% 29.77 in 7.0 mi South 15.0 mph 21.9 mph N/A   Overcast
1:55 PM 34.0 °F 26.0 °F 28.9 °F 82% 29.75 in 6.0 mi South 10.4 mph - N/A   Haze
2:55 PM 35.1 °F 26.9 °F 28.9 °F 78% 29.74 in 5.0 mi SSW 11.5 mph - N/A   Haze
3:05 PM 35.6 °F 27.1 °F 30.2 °F 81% 29.72 in 5.0 mi SSW 12.7 mph - N/A   Haze
3:55 PM 36.0 °F 29.0 °F 28.9 °F 76% 29.74 in 5.0 mi SSW 9.2 mph 18.4 mph N/A   Haze
4:35 PM 35.6 °F 28.0 °F 28.4 °F 75% 29.71 in 6.0 mi South 10.4 mph - N/A   Haze
4:55 PM 36.0 °F 29.6 °F 30.0 °F 79% 29.74 in 5.0 mi SSW 8.1 mph - N/A   Haze
5:55 PM 36.0 °F 32.1 °F 30.0 °F 79% 29.74 in 5.0 mi South 4.6 mph - N/A   Haze
6:55 PM 35.1 °F 32.2 °F 30.0 °F 82% 29.75 in 6.0 mi South 3.5 mph - N/A   Haze
7:55 PM 34.0 °F - 30.0 °F 85% 29.75 in 5.0 mi Calm Calm - N/A   Overcast
8:55 PM 35.1 °F 32.2 °F 30.0 °F 82% 29.75 in 5.0 mi South 3.5 mph - N/A   Haze
9:55 PM 34.0 °F 29.8 °F 30.0 °F 85% 29.75 in 5.0 mi SSW 4.6 mph - N/A   Scattered Clouds
10:55 PM 32.0 °F 27.5 °F 28.9 °F 88% 29.74 in 4.0 mi SSW 4.6 mph - N/A   Overcast
11:55 PM 35.1 °F 27.4 °F 28.9 °F 78% 29.74 in 9.0 mi WSW 10.4 mph - N/A   Scattered Clouds